Overview Statistics Trail Chart Weather Telemetry Raw packets
 

This is the latest recevied weather packets stored in our database for station/object KD4EG. If no packets are shown the sender has not sent any weather packets the latest 10 day(s).

<< 89 90 91 92 93 94 95 >>
Time Temp. Humidity Pressure Rain* Wind** Luminosity Snow
1787959016 30° C 56% 1019.7 hPa 0 mm - 29 W/m² -
1787958711 30° C 56% 1019.7 hPa 0 mm - 35 W/m² -
1787958407 29.44° C 56% 1019.6 hPa 0 mm - 40 W/m² -
1787958103 29.44° C 56% 1019.6 hPa 0 mm - 41 W/m² -
1787957801 30° C 55% 1019.5 hPa 0 mm - 40 W/m² -
1787957496 30.56° C 53% 1019.6 hPa 0 mm - 46 W/m² -
1787957190 31.11° C 51% 1019.6 hPa 0 mm - 70 W/m² -
1787956886 31.67° C 49% 1019.6 hPa 0 mm - 85 W/m² -
1787956586 32.78° C 48% 1019.3 hPa 0 mm - 111 W/m² -
1787956274 32.78° C 49% 1019.5 hPa 0 mm - 134 W/m² -
1787955970 31.67° C 48% 1019.4 hPa 0 mm - 148 W/m² -
1787955665 31.67° C 49% 1019.4 hPa 0 mm - 157 W/m² -
1787955361 31.67° C 47% 1019.4 hPa 0 mm - 172 W/m² -
1787955060 31.11° C 49% 1019.5 hPa 0 mm - 171 W/m² -
1787954755 31.67° C 48% 1019 hPa 0 mm - 187 W/m² -
1787954451 31.67° C 47% 1019.2 hPa 0 mm - 190 W/m² -
1787954145 31.67° C 47% 1018.9 hPa 0 mm - 205 W/m² -
1787953845 31.11° C 48% 1019 hPa 0 mm - 226 W/m² -
1787953544 32.22° C 48% 1019 hPa 0 mm - 239 W/m² -
1787953246 32.22° C 47% 1019.3 hPa 0 mm - 259 W/m² -
1787952936 32.22° C 46% 1019.2 hPa 0 mm - 273 W/m² -
1787952631 31.67° C 46% 1019.2 hPa 0 mm - 287 W/m² -
1787952330 32.78° C 46% 1019 hPa 0 mm - 308 W/m² -
1787952027 31.67° C 51% 1019.3 hPa 0 mm - 322 W/m² -
1787951721 31.67° C 48% 1019.2 hPa 0 mm - 363 W/m² -

* Rain latest hour (hover to see other rain measurements)
** Current wind speed in m/s (hover to see current wind gust speed)